MET994 - Hong Kong to Kuala Lumpur International Airport

Airbus A330-243
787MT
3 hrs 30 mins
1375 nm
Scheduled - M | TU | TH

Bid/PiRep Status

Bid was submitted on Jan 02 2017.

PiRep # 74577: Approved by Dave Nichols on January 3rd, 2017 10:15 UTC

Departure

Departing from
Hong Kong (HKG)
Departure gate
Terminal 1
Scheduled Departure
GMT 0715
Local 1515
METAR VHHH 260000Z 10010KT 8000 FEW012 SCT035 25/22 Q1011 NOSIG
TAF TAF VHHH 252300Z 2600/2706 13010KT 7000 FEW012 SCT030 TX28/2607Z TX25/2706Z TN21/2623Z TEMPO 2603/2612 20010KT BECMG 2612/2614 VRB05KT TEMPO 2615/2624 32010KT 3000 BR SHRA BECMG 2622/2624 02010KT
  • No charts available

Arrival

Arriving at
Kuala Lumpur International Airport (KUL)
Arrival gate
Unassigned
Scheduled Arrival
GMT 1045
Local 1845
METAR WMKK 252330Z VRB01KT 7000 FEW010 FEW017CB SCT030 BKN280 25/25 Q1010 NOSIG
TAF TAF AMD WMKK 252320Z 2600/2706 33005KT 9000 FEW017CB SCT140 BKN280 PROB30 TEMPO 2600/2604 6000 -TSRA FEW015CB SCT018 TEMPO 2608/2612 4000 TSRA FEW015CB SCT018

Route Map

Planning Resources

PECA1A SIKOU A202 SAMAS G221 PCA TSN L637 BITOD IKUKO PULIP PULI1V
PECAN V10 ALLEY V31 SURFA V11 IDOSI A1 BUNTA G221 PCA W12 BMT W1 AC L644 CN L642 ENREP M763 TAXUL Y331 PIBOS
SANDI2A SANDI L642 ENREO M763 PIBOS PIBOSA
CH L642 VEPLI UGPEK VPK G584 VKL
PECAN1A PECAN V12 EPDOS L642 ENREP M763 TAXUL Y349 PULIP
Route:
OFP Layout:
Units:
Detailed Navlog:
ETOPS Planning:
Plan Stepclimbs:
Runway Analysis:
Include NOTAMS:
FIR NOTAMS:
Flight Maps:

Return Flights

MET995
Airbus A330-243
1145 GMT

Popularity

Hub Current Bids PiReps this month Total PiReps
KMCI 0 0 2
KLAX 0 0 3
KBOS 0 0 0